DW5462 Weather Reports


time (UTC)temp
C
wind
direction
speed
KPH
gust
KPH
rain 1hr
cm
rain 24hr
cm
rain mn
cm
humidity
%
barometer
mb
20260506111548 16 227 0.0 6.4 0.00 0.23 0.00 71 1006.4
20260506110054 15 199 0.0 3.2 0.00 0.23 0.00 73 1006.5
20260506104551 15 195 0.0 0.0 0.00 0.23 0.00 74 1006.6
20260506103052 15 193 0.0 4.8 0.00 0.23 0.00 73 1006.6
20260506101557 15 276 0.0 0.0 0.00 0.23 0.00 75 1006.7
20260506094544 15 277 0.0 0.0 0.00 0.23 0.00 76 1006.6
20260506093047 15 277 0.0 0.0 0.00 0.23 0.00 78 1006.6
20260506091539 14 277 0.0 4.8 0.00 0.23 0.00 77 1006.7
20260506090037 14 277 0.0 6.4 0.00 0.23 0.00 77 1006.7
20260506084558 14 277 1.6 6.4 0.00 0.23 0.00 77 1006.7
20260506083036 14 277 0.0 8.0 0.00 0.23 0.00 78 1006.5
20260506081541 14 278 0.0 4.8 0.00 0.23 0.00 81 1006.6
20260506073036 12 279 0.0 6.4 0.00 0.23 0.00 93 1006.8
20260506071519 11 280 0.0 3.2 0.00 0.23 0.00 95 1006.6
20260506061513 10 280 0.0 0.0 0.00 0.23 0.00 95 1006.6
20260506044548 7 280 0.0 0.0 0.00 0.23 0.00 94 1007.0
20260506043016 7 280 0.0 0.0 0.00 0.23 0.00 93 1006.9
20260506041501 7 280 0.0 0.0 0.00 0.23 0.00 93 1007.1
20260506040100 7 280 0.0 0.0 0.00 0.23 0.00 93 1007.2
20260506034627 7 280 0.0 0.0 0.00 0.23 0.00 93 1007.4
20260506033103 8 280 0.0 0.0 0.00 0.23 0.00 93 1007.3
20260506031558 8 280 0.0 0.0 0.00 0.23 0.00 93 1007.0
20260506030051 9 280 0.0 0.0 0.00 0.23 0.00 93 1007.1
20260506024548 9 280 0.0 0.0 0.00 0.23 0.00 93 1007.1
20260506023105 9 279 0.0 1.6 0.00 0.23 0.00 93 1007.6
20260506021545 9 279 0.0 0.0 0.00 0.23 0.00 93 1007.6
20260506020026 10 279 0.0 0.0 0.00 0.23 0.00 93 1007.7
20260506014529 10 280 0.0 0.0 0.00 0.23 0.00 93 1007.5
20260506013014 10 280 0.0 0.0 0.00 0.23 0.00 93 1007.5
20260506011516 10 280 0.0 0.0 0.00 0.23 0.00 93 1007.4
20260506010013 10 280 0.0 0.0 0.00 0.23 0.00 93 1007.4
20260506004520 10 279 0.0 6.4 0.00 0.23 0.00 94 1007.6
20260506003009 10 282 1.6 6.4 0.00 0.23 0.00 93 1007.8
20260506001505 10 297 0.0 3.2 0.00 0.23 0.00 93 1008.0
20260506000002 10 297 0.0 0.0 0.00 0.23 0.00 93 1008.2
20260505234507 10 297 0.0 8.0 0.00 0.23 0.00 93 1008.3
20260505233050 10 276 0.0 0.0 0.00 0.23 0.00 93 1008.4
20260505231549 10 276 0.0 0.0 0.00 0.23 0.00 93 1008.4
20260505230048 10 276 0.0 0.0 0.00 0.23 0.00 93 1008.3
20260505224547 10 276 0.0 0.0 0.00 0.23 0.00 93 1008.4
20260505223045 11 276 0.0 0.0 0.00 0.23 0.00 93 1008.3
20260505221543 11 276 0.0 0.0 0.00 0.23 0.00 93 1008.3
20260505220056 11 276 0.0 0.0 0.00 0.23 0.00 93 1008.3
20260505214541 11 276 0.0 0.0 0.00 0.23 0.23 93 1008.4
20260505213029 11 276 0.0 4.8 0.00 0.23 0.23 93 1008.4
20260505211529 11 276 0.0 4.8 0.00 0.23 0.23 92 1008.4
20260505210028 11 276 0.0 6.4 0.00 0.23 0.23 92 1008.3
20260505204527 11 304 0.0 6.4 0.00 0.23 0.23 91 1008.0
20260505203027 11 307 0.0 1.6 0.00 0.23 0.23 91 1007.9
20260505201527 11 316 0.0 0.0 0.00 0.23 0.23 91 1007.9
20260505200026 11 316 0.0 0.0 0.00 0.23 0.23 90 1007.7
20260505194533 12 316 0.0 0.0 0.03 0.23 0.23 89 1007.5
20260505193024 12 316 0.0 0.0 0.03 0.23 0.23 89 1007.4
20260505191507 12 316 0.0 0.0 0.05 0.23 0.23 89 1007.4
20260505190055 12 316 0.0 0.0 0.05 0.23 0.23 88 1007.2
20260505184602 12 316 0.0 0.0 0.05 0.23 0.23 88 1007.4
20260505183054 13 316 0.0 0.0 0.05 0.23 0.23 88 1007.3
20260505181554 13 316 0.0 0.0 0.03 0.20 0.20 88 1007.2
20260505180058 13 316 0.0 4.8 0.03 0.20 0.20 88 1007.6
20260505174609 13 33 0.0 0.0 0.00 0.18 0.18 88 1007.3
20260505173052 13 33 0.0 0.0 0.00 0.18 0.18 90 1007.2
20260505171551 13 34 0.0 0.0 0.00 0.18 0.18 91 1007.1
20260505170050 13 34 0.0 0.0 0.00 0.18 0.18 91 1007.0
20260505164541 13 34 0.0 0.0 0.00 0.18 0.18 91 1006.9
20260505163043 13 34 0.0 0.0 0.00 0.18 0.18 92 1006.9
20260505161540 13 34 0.0 4.8 0.00 0.18 0.18 92 1007.0
20260505153048 12 266 0.0 0.0 0.03 0.18 0.18 91 1007.4
20260505151542 12 266 0.0 3.2 0.05 0.18 0.18 91 1007.6
20260505124509 19 269 0.0 8.0 0.00 0.00 0.00 66 1006.9
20260505123007 19 269 0.0 8.0 0.00 0.00 0.00 63 1006.9
20260505121509 19 273 0.0 8.0 0.00 0.00 0.00 61 1006.8
20260505120005 20 264 0.0 9.7 0.00 0.00 0.00 59 1006.8
20260505114504 20 319 0.0 6.4 0.00 0.00 0.00 54 1006.9
20260505113003 20 257 0.0 8.0 0.00 0.00 0.00 56 1006.9